sat.trackr.live / text

‹ back to catalog

STARLINK-5493

NORAD 55333 · 2023-013C

PAYLOAD ACTIVE UNKNOWN

§ Identity

Operator
Country
US
Launch date
2023-01-26
Launch site
AFETR
Launch vehicle
Mass (kg)
RCS (m²)

Purposes: comms

External: N2YO · Heavens-Above · Gunter

§ Orbital elements

Epoch: 2026-09-19T02:50:14.528544Z

Period
94.27 min
Inclination
43.0024°
Eccentricity
0.0000969
Mean motion
15.27575764 rev/d
Perigee alt
482.4 km
Apogee alt
483.7 km
Semi-major
6,861.2 km
B*
2.4652e-6
RAAN
291.2176°
Arg perigee
267.5853°
Mean anomaly
92.4888°
Rev number
20,125

§ Raw data

STARLINK-54931 55333U 23013C   26262.11822371 -.00000194  00000+0  24652-5 0  99992 55333  43.0024 291.2176 0000969 267.5853  92.4888 15.27575764201250

JSON: /api/v1/satellites/55333 · /tle

For live sub-satellite position, see the globe view (requires WebGL).

§ Visibility from observer

Set your observer location to see the next 7 days of passes ≥ 10°. The values pass through the URL so the page stays shareable.

No JS? Fill the form by hand. The geolocation button needs JavaScript.